Flag for Germany Weather past 2 weeks in Weimar, Thuringia, Germany

Now
66 °F

Passing clouds.


Feels Like: 66 °F
Forecast: 62 / 79 °F
Wind: 5 mph from Southwest

Location: Erfurt-Bindersleben

Current Time: Aug 5, 2015 at 12:03:31 AM

Latest Report: Aug 4, 2015 at 11:20 PM


Visibility: N/A

Pressure: 30.04 "Hg

Humidity: 83%

Dew point: 61 °F

Location of WeimarLocation

Historic Weather in Weimar — Graph

°F

Weimar temperature yesterday

Maximum temperature yesterday: 90 °F (at 2:20 PM)
Minimum temperature yesterday: 66 °F (at 9:20 PM)
Average temperature yesterday: 76 °F

Past Weeks' High & Low Weather Summary

 TemperatureHumidityPressure
High90 °F (Aug 4, 2:20 PM)100% (Jul 31, 6:50 AM)30.15 "Hg (Jul 31, 6:50 AM)
Low46 °F (Jul 31, 3:50 AM)24% (Aug 2, 3:50 PM)29.62 "Hg (Jul 25, 4:50 AM)
Average66 °F60%29.92 "Hg
* Reported Jul 20 10:20 PM — Aug 4 10:20 PM, Weimar, Weather by CustomWeather, © 2015

Note: Actual official high and low records may vary slightly from our data, if they occured in-between our weather recording intervals... More about our weather records

Advertising

Weimar weather history for previous 24 hours

 ConditionsComfort  
Time TempWeatherWind HumidityBarometerVisibility
10:20 PM
Tue, Aug 4
66 °FPassing clouds.7 mph83%30.04 "HgN/A
9:50 PM66 °FSunny.8 mph78%30.04 "Hg10 mi
9:20 PM66 °FSunny.12 mph78%30.01 "Hg10 mi
8:50 PM68 °FSunny.12 mph73%30.01 "Hg10 mi
8:20 PM68 °FBroken clouds.14 mph73%30.01 "HgN/A
7:50 PM68 °FBroken clouds.15 mph73%29.98 "HgN/A
7:20 PM68 °FBroken clouds.14 mph73%29.98 "HgN/A
6:50 PM70 °FSprinkles. Broken clouds.20 mph69%29.98 "HgN/A
6:20 PM75 °FPartly sunny.20 mph54%29.98 "HgN/A
5:50 PM77 °FScattered showers. Broken clouds.23 mph47%29.95 "HgN/A
5:20 PM79 °FScattered showers. Partly sunny.26 mph45%29.92 "HgN/A
4:50 PM82 °FScattered showers. Broken clouds.24 mph40%29.89 "HgN/A
4:20 PM84 °FPassing clouds.16 mph35%29.89 "HgN/A
3:50 PM88 °FSunny.13 mph29%29.89 "Hg10 mi
3:20 PM90 °FSunny.10 mph27%29.89 "Hg10 mi
2:50 PM90 °FSunny.14 mph26%29.89 "Hg10 mi
2:20 PM90 °FSunny.9 mph26%29.89 "Hg10 mi
1:50 PM88 °FSunny.13 mph25%29.89 "Hg10 mi
1:20 PM88 °FPassing clouds.10 mph25%29.89 "HgN/A
12:50 PM88 °FPassing clouds.7 mph29%29.92 "HgN/A
12:20 PM86 °FSunny.10 mph29%29.92 "Hg10 mi
11:50 AM86 °FSunny.9 mph31%29.92 "Hg10 mi
11:20 AM86 °FSunny.9 mph31%29.92 "Hg10 mi
10:50 AM84 °FSunny.8 mph35%29.92 "Hg10 mi
10:20 AM82 °FSunny.8 mph40%29.92 "Hg10 mi
9:50 AM81 °FSunny.10 mph42%29.95 "Hg10 mi
9:20 AM79 °FSunny.7 mph48%29.95 "Hg10 mi
8:50 AM77 °FSunny.8 mph51%29.95 "Hg10 mi
8:20 AM75 °FSunny.7 mph50%29.95 "Hg10 mi
7:50 AM73 °FSunny.6 mph57%29.98 "Hg10 mi
7:20 AM70 °FSunny.7 mph60%29.95 "Hg10 mi
6:20 AM70 °FClear.6 mph60%29.98 "Hg10 mi
5:50 AM70 °FClear.5 mph60%29.95 "Hg10 mi
5:20 AM70 °FClear.6 mph60%29.98 "Hg10 mi
4:50 AM70 °FClear.6 mph60%29.98 "Hg10 mi
4:20 AM70 °FClear.6 mph60%29.98 "Hg10 mi
3:50 AM70 °FClear.6 mph57%29.98 "Hg10 mi
3:20 AM70 °FClear.6 mph60%30.01 "Hg10 mi
2:50 AM72 °FClear.5 mph57%30.01 "Hg10 mi
2:20 AM72 °FClear.6 mph53%30.01 "Hg10 mi
1:50 AM72 °FClear.7 mph53%30.01 "Hg10 mi
1:20 AM72 °FClear.8 mph53%30.01 "Hg10 mi
12:50 AM72 °FClear.7 mph53%30.01 "Hg10 mi
12:20 AM73 °FClear.7 mph50%30.01 "Hg10 mi
Weather by CustomWeather, © 2015

See weather overviewHow to use our weather pages